map of IWD home
IWD - Airport
Location
City:  Ironwood, Michigan, United States
Name:Gogebic-Iron County Airport
ICAO:KIWD
IATA:IWD
FAA LID:IWD

Details
Type:Airport (Part 139 Class I)
Use:Public/Civil
Latitude:4631'39"N (46.527472)
Longitude:9007'53"W (-90.131388)
Datum:WGS 1984
Elevation:1230 ft (375 m)
Variation:2.69W (WMM2015 magnetic declination)
-0.05 annual change
Runways:1
Longest:6502 × 120 ft (1982 × 36.5 m), paved

Time
Time Zone:UTC-6 (DST-5)
Local Time:

Weather
METAR:KIWD 220756Z AUTO 23003KT 10SM CLR 05/03 A3028 RMK AO2 SLP264 T00500033 PNO $
TAF:KIWD 220533Z 2206/2306 26004KT P6SM FEW060
FM221400 23014G22KT P6SM FEW140
FM222300 24006KT P6SM BKN080
FM230400 VRB04KT P6SM BKN050
FM230500 10005KT P6SM BKN040

Related Locations
Nearby:
Farthest:YAUG: 10872 mi / 17497 km
Augusta [Augusta Airport], WA, AU

Find:

   beyond  
but within

Other Information
Maps:
NOTAMs:
Links:
Sources:

  
  • flag of United States
  • flag of Michigan
  

Sectional Chart

Flight Planning
at skyvector.com

Satellite Image

Google Maps Satellite view

 

Copyright © 2004-2018 Karl L. Swartz. All rights reserved.
The Great Circle Mapper name and logo are trademarks of the Great Circle Mapper.
All other trademarks mentioned herein belong to their respective owners.
Please see credits for attibutions and further copyright information.

  Follow gcmap on Facebook Follow gcmap on Twitter Follow gcmap on Google+ GCmap on LinkedIn

hCard Microformat

Geo Microformat